[[{"header":{"parameterUnit":"m.s-1","parameterCategory":1,"la1":30.2991,"la2":30.254,"lo1":-89.0895,"lo2":-89.0444,"dy":0.0017,"dx":0.0017,"nx":28,"ny":28,"refTime":"2024-03-15T21:00:00:Z","depth":0,"parameterNumber":2,"parameterNumberName":"U-component_of_WINDS"},"data":[0,0,0,0,0,0,0,0,0,0,0,0,0,0,0,0,0,0,0,0,0,0,0,0,0,0,0,0,0,0,0,0,0,0,0,0,0,0,0,0,0,0,0,0,0,0,0,0,0,0,0,0,0,0,0,0,0,0,-1.0203,-1.0203,0,-1.0191,-1.0191,-1.019,-1.0164,-1.0164,-1.0163,-1.0163,-1.0151,-1.0151,-1.0151,0,0,0,0,0,0,0,0,0,0,0,0,0,-1.0204,-1.0204,-1.0203,-1.0203,-1.0202,-1.0191,-1.0191,-1.019,-1.0164,-1.0164,-1.0163,-1.0163,-1.0151,-1.0151,-1.0151,0,0,0,0,0,0,0,0,0,0,0,0,0,-1.0199,-1.0204,-1.0203,-1.0188,-1.0187,-1.0191,-1.0191,-1.019,-1.0165,-1.0164,-1.0163,-1.0162,-1.0151,-1.0151,-1.0151,-1.0169,0,0,-1.0152,-1.0152,0,0,0,0,0,0,0,0,-1.0199,-1.0199,-1.019,-1.0189,-1.0188,-1.0178,-1.0187,-1.0183,-1.0165,-1.0173,-1.0163,-1.0162,-1.0161,-1.016,-1.016,-1.0168,-1.0168,-1.0152,-1.0152,-1.0153,-1.0153,0,0,0,0,0,0,0,-1.02,-1.0199,-1.0198,-1.019,-1.0189,-1.0182,-1.0181,-1.0186,-1.0172,-1.0172,-1.017,-1.0169,-1.016,-1.0159,-1.0159,-1.0168,-1.0152,-1.0152,-1.0153,-1.0153,-1.019,-1.0191,0,0,0,0,0,0,-1.0202,-1.02,-1.0198,-1.0198,-1.0191,-1.0183,-1.0181,-1.0182,-1.0171,-1.0169,-1.017,-1.0168,-1.0159,-1.0159,-1.0159,-1.0179,-1.0153,-1.0153,-1.0153,-1.019,-1.0191,-1.0191,0,0,0,0,0,0,-1.0202,-1.0202,-1.0199,-1.0198,-1.0197,-1.0184,-1.0185,-1.0182,-1.0182,-1.017,-1.0167,-1.0172,-1.0159,-1.0158,-1.0167,-1.0178,-1.0153,-1.0153,-1.0189,-1.019,-1.0191,-1.0219,0,0,0,0,0,0,-1.0202,-1.0202,-1.0209,-1.0198,-1.0197,-1.0207,-1.0186,-1.0183,-1.0182,-1.018,-1.0171,-1.0169,-1.0158,-1.0166,-1.0167,-1.0178,-1.0153,-1.0187,-1.0189,-1.0191,-1.0217,-1.0221,-1.0224,0,0,0,0,0,-1.0202,-1.0217,-1.0209,-1.0209,-1.0205,-1.0208,-1.0207,-1.0194,-1.0183,-1.019,-1.0182,-1.0169,-1.0176,-1.0167,-1.0168,-1.0179,-1.0187,-1.0189,-1.019,-1.0215,-1.022,-1.0224,0,0,0,0,0,0,-1.0229,-1.0215,-1.0207,-1.0218,-1.0214,-1.0203,-1.0211,-1.02,-1.0199,-1.0197,-1.0181,-1.0179,-1.019,-1.0185,-1.0175,-1.0195,-1.018,-1.0182,-1.0198,-1.0203,-1.0206,-1.0208,-1.0154,0,0,0,0,0,-1.0236,-1.024,-1.0227,-1.0239,-1.0237,-1.0225,-1.0225,-1.0216,-1.0211,-1.0209,-1.0202,-1.0198,-1.0199,-1.0201,-1.0201,-1.0216,-1.0214,-1.0224,-1.0228,-1.0231,-1.0233,-1.024,-1.0245,-1.0198,-1.0198,-1.0198,0,0,-1.0252,-1.0244,-1.0247,-1.0244,-1.024,-1.0244,-1.0223,-1.0228,-1.0231,-1.021,-1.0217,-1.0212,-1.0207,-1.0218,-1.0223,-1.0215,-1.0245,-1.0233,-1.0236,-1.0236,-1.0243,-1.0247,-1.0251,-1.0199,-1.0199,-1.0199,0,0,-1.0281,-1.0276,-1.0285,-1.0281,-1.0275,-1.0266,-1.0269,-1.0259,-1.0255,-1.0262,-1.0246,-1.0249,-1.0252,-1.0249,-1.0248,-1.0276,-1.0264,-1.0277,-1.0296,-1.0304,-1.0308,-1.0311,-1.0321,-1.0325,-1.0279,-1.0279,-1.0279,0,-1.0301,-1.0306,-1.0291,-1.0297,-1.0296,-1.0277,-1.0287,-1.0284,-1.0278,-1.0278,-1.0269,-1.0272,-1.0267,-1.0278,-1.0285,-1.0284,-1.0286,-1.0278,-1.0308,-1.0311,-1.0314,-1.0324,-1.0328,-1.028,-1.028,-1.028,-1.028,0,-1.0331,-1.0334,-1.0342,-1.0337,-1.0337,-1.0345,-1.0332,-1.0334,-1.0324,-1.0316,-1.0324,-1.0317,-1.0316,-1.0318,-1.0309,-1.0327,-1.0323,-1.0311,-1.0295,-1.032,-1.0329,-1.0333,-1.0283,-1.0282,-1.0282,-1.0281,0,0,-1.0377,-1.0364,-1.0367,-1.0365,-1.0356,-1.0359,-1.0366,-1.0365,-1.0367,-1.0363,-1.0369,-1.0371,-1.0361,-1.0359,-1.0349,-1.0356,-1.0379,-1.0344,-1.0343,-1.0351,-1.04,-1.0409,-1.0413,-1.0371,-1.0372,-1.0372,-1.04,0,-1.0405,-1.0416,-1.0403,-1.0417,-1.042,-1.0402,-1.0408,-1.0403,-1.0396,-1.0398,-1.0391,-1.0393,-1.0378,-1.0377,-1.0383,-1.0375,-1.0389,-1.0373,-1.0377,-1.0377,-1.0379,-1.0418,-1.0428,-1.0454,-1.0404,-1.0404,-1.0405,0,-1.044,-1.0438,-1.0452,-1.0442,-1.0443,-1.0449,-1.0447,-1.0449,-1.0443,-1.0438,-1.0436,-1.0424,-1.0431,-1.0414,-1.0423,-1.0412,-1.0413,-1.0409,-1.041,-1.041,-1.0393,-1.042,-1.0463,-1.0467,-1.041,-1.041,-1.0409,0,-1.0473,-1.0474,-1.0482,-1.0481,-1.047,-1.0474,-1.047,-1.0464,-1.0464,-1.0462,-1.0462,-1.0461,-1.0461,-1.046,-1.0449,-1.0438,-1.0459,-1.0442,-1.0455,-1.0455,-1.046,-1.046,-1.0504,-1.046,-1.046,-1.046,-1.046,0,-1.0506,-1.0515,-1.0497,-1.0502,-1.0512,-1.0497,-1.0508,-1.0502,-1.0496,-1.05,-1.0484,-1.0488,-1.0472,-1.0475,-1.0465,-1.0474,-1.0474,-1.047,-1.0467,-1.0471,-1.0472,-1.0472,-1.047,-1.0461,-1.0461,-1.046,-1.046,0,-1.0545,-1.0533,-1.0541,-1.053,-1.0528,-1.0536,-1.0526,-1.0531,-1.0523,-1.0528,-1.0528,-1.0516,-1.0518,-1.0506,-1.0505,-1.0499,-1.0512,-1.0506,-1.0514,-1.0513,-1.0527,-1.0526,-1.0573,-1.0578,-1.053,-1.053,-1.0531,0,-1.0567,-1.0574,-1.0564,-1.0565,-1.0562,-1.0564,-1.0564,-1.055,-1.055,-1.0545,-1.055,-1.055,-1.055,-1.0554,-1.0545,-1.0545,-1.0539,-1.0556,-1.0539,-1.0543,-1.054,-1.054,-1.0541,-1.0559,-1.056,-1.056,-1.0561,0,-1.0608,-1.0602,-1.0602,-1.0601,-1.0601,-1.0599,-1.0596,-1.0599,-1.0583,-1.0584,-1.0586,-1.0586,-1.0585,-1.0586,-1.0584,-1.058,-1.0568,-1.0566,-1.0569,-1.0574,-1.0578,-1.0576,-1.0524,-1.0565,-1.0565,-1.0564,-1.0564,-1.0564,-1.064,-1.0645,-1.0638,-1.064,-1.0636,-1.0633,-1.0637,-1.0629,-1.063,-1.0629,-1.062,-1.0624,-1.0618,-1.0614,-1.0611,-1.0613,-1.0605,-1.061,-1.0611,-1.0612,-1.0615,-1.0577,-1.0613,-1.0613,-1.0612,-1.0612,-1.0612,0,-1.068,-1.0675,-1.0676,-1.0672,-1.0673,-1.0661,-1.0657,-1.0659,-1.0662,-1.0658,-1.0658,-1.066,-1.0661,-1.0651,-1.0651,-1.0655,-1.0649,-1.0655,-1.0655,-1.0654,-1.0622,-1.062,-1.066,-1.066,-1.066,-1.066,-1.066,-1.066,-1.0701,-1.071,-1.0703,-1.0709,-1.0703,-1.0707,-1.0705,-1.0703,-1.07,-1.0702,-1.0703,-1.0697,-1.069,-1.0689,-1.069,-1.0687,-1.0688,-1.0696,-1.0691,-1.0661,-1.0657,-1.0652,-1.065,-1.0696,-1.0696,-1.0723,-1.0724,-1.0724]},{"header":{"parameterUnit":"m.s-1","parameterCategory":1,"la1":30.2991,"la2":30.254,"lo1":-89.0895,"lo2":-89.0444,"dy":0.0017,"dx":0.0017,"nx":28,"ny":28,"refTime":"2024-03-15T21:00:00:Z","depth":0,"parameterNumber":3,"parameterNumberName":"V-component_of_WINDS"},"data":[0,0,0,0,0,0,0,0,0,0,0,0,0,0,0,0,0,0,0,0,0,0,0,0,0,0,0,0,0,0,0,0,0,0,0,0,0,0,0,0,0,0,0,0,0,0,0,0,0,0,0,0,0,0,0,0,0,0,1.53,1.53,0,1.523,1.5229,1.5229,1.5176,1.5175,1.5175,1.5174,1.5099,1.5098,1.5096,0,0,0,0,0,0,0,0,0,0,0,0,0,1.5385,1.5384,1.53,1.53,1.5299,1.523,1.5229,1.5228,1.5176,1.5175,1.5175,1.5174,1.51,1.5098,1.5096,0,0,0,0,0,0,0,0,0,0,0,0,0,1.5335,1.5384,1.5301,1.5264,1.526,1.5231,1.5229,1.5228,1.5176,1.5175,1.5175,1.5174,1.51,1.5098,1.5096,1.5095,0,0,1.5089,1.5088,0,0,0,0,0,0,0,0,1.5338,1.5332,1.5271,1.5267,1.5262,1.5211,1.5232,1.5184,1.5176,1.5208,1.5174,1.5174,1.5137,1.5131,1.512,1.5092,1.5089,1.5088,1.5087,1.5086,1.5085,0,0,0,0,0,0,0,1.5342,1.5335,1.5273,1.527,1.5265,1.525,1.5243,1.5222,1.5177,1.5205,1.5201,1.5194,1.5134,1.5122,1.5118,1.5088,1.5088,1.5086,1.5085,1.5084,1.5056,1.5056,0,0,0,0,0,0,1.5351,1.5338,1.5275,1.527,1.5299,1.525,1.5241,1.5228,1.5177,1.5169,1.5194,1.5192,1.5126,1.512,1.5115,1.5111,1.5086,1.5084,1.5082,1.5055,1.5056,1.5056,0,0,0,0,0,0,1.5353,1.5346,1.5278,1.5303,1.5293,1.5249,1.5235,1.5227,1.5215,1.5169,1.516,1.519,1.5126,1.5118,1.5101,1.5108,1.5083,1.5081,1.5054,1.5055,1.5056,1.5104,0,0,0,0,0,0,1.5356,1.5347,1.5347,1.5304,1.5292,1.5266,1.5236,1.5226,1.5211,1.5207,1.5163,1.5155,1.5125,1.5105,1.5099,1.5104,1.5079,1.5053,1.5055,1.5056,1.5101,1.5106,1.511,0,0,0,0,0,1.5359,1.5363,1.5348,1.534,1.5292,1.5267,1.526,1.5226,1.5212,1.5212,1.5182,1.5156,1.5108,1.5103,1.5096,1.5101,1.5053,1.5054,1.5056,1.5099,1.5105,1.511,0,0,0,0,0,0,1.5407,1.5356,1.5339,1.5329,1.5303,1.5258,1.5256,1.5233,1.5209,1.5206,1.5163,1.5154,1.5141,1.5119,1.5115,1.5098,1.5077,1.5077,1.5113,1.5118,1.5122,1.5128,1.5077,0,0,0,0,0,1.5417,1.5402,1.5358,1.5353,1.5341,1.5301,1.5288,1.5265,1.5235,1.5223,1.5193,1.5164,1.5142,1.5129,1.5106,1.5098,1.5087,1.5097,1.5102,1.5106,1.5106,1.51,1.5104,1.5061,1.5061,1.5061,0,0,1.5436,1.5407,1.5399,1.5362,1.5339,1.5323,1.5292,1.5276,1.5264,1.522,1.5203,1.5179,1.5145,1.5132,1.5125,1.5113,1.5116,1.5108,1.5111,1.5109,1.5102,1.5106,1.511,1.5062,1.5062,1.5062,0,0,1.5464,1.544,1.5433,1.5411,1.5377,1.535,1.5349,1.5307,1.5291,1.5272,1.5239,1.5223,1.5187,1.5164,1.5147,1.5166,1.5141,1.5159,1.5183,1.5177,1.5181,1.5184,1.519,1.5193,1.516,1.516,1.516,0,1.5492,1.5468,1.5433,1.542,1.5404,1.5365,1.5358,1.5337,1.5297,1.5286,1.5274,1.5228,1.5202,1.5183,1.5188,1.5175,1.5172,1.5164,1.5183,1.5186,1.5188,1.5194,1.5196,1.5163,1.5162,1.5162,1.5162,0,1.5504,1.5488,1.5487,1.545,1.5434,1.5424,1.5386,1.5374,1.5352,1.5326,1.5308,1.5275,1.5245,1.5239,1.5216,1.5217,1.5211,1.5192,1.517,1.5195,1.52,1.5202,1.5166,1.5165,1.5165,1.5164,0,0,1.556,1.5504,1.5504,1.5488,1.5447,1.5433,1.5421,1.5393,1.5383,1.5357,1.5345,1.5315,1.5297,1.5279,1.5253,1.5248,1.5265,1.5229,1.5228,1.5237,1.5264,1.5279,1.5282,1.5249,1.5249,1.5249,1.5267,0,1.5581,1.5558,1.5526,1.5514,1.5498,1.5461,1.545,1.5424,1.5399,1.5382,1.5354,1.5334,1.5312,1.53,1.5294,1.5265,1.527,1.5263,1.5236,1.5236,1.5247,1.5284,1.53,1.5318,1.5268,1.5268,1.5269,0,1.5602,1.5579,1.5566,1.5527,1.5519,1.551,1.5482,1.5466,1.5435,1.5417,1.5397,1.5369,1.5353,1.5334,1.5311,1.5307,1.5294,1.5278,1.5278,1.5274,1.5254,1.5282,1.5323,1.5326,1.5271,1.5271,1.5271,0,1.5644,1.561,1.5597,1.5584,1.5538,1.5533,1.5513,1.5481,1.5467,1.5441,1.5431,1.5404,1.539,1.5369,1.5334,1.5324,1.5315,1.5293,1.53,1.5301,1.53,1.53,1.534,1.5292,1.5291,1.5291,1.5291,0,1.5671,1.5665,1.5616,1.5608,1.5599,1.5562,1.5554,1.553,1.5502,1.5489,1.5454,1.5442,1.5397,1.5379,1.5352,1.5337,1.5331,1.5316,1.5308,1.5319,1.5321,1.531,1.5308,1.5292,1.5292,1.5292,1.5292,0,1.5717,1.5684,1.5668,1.5626,1.5616,1.5611,1.5574,1.5565,1.5539,1.5522,1.5516,1.5475,1.5452,1.5416,1.5382,1.5363,1.5353,1.5341,1.5364,1.536,1.5369,1.5369,1.5403,1.5405,1.5356,1.5356,1.5357,0,1.5736,1.5731,1.5689,1.5678,1.566,1.5642,1.5628,1.559,1.5576,1.554,1.5535,1.551,1.5488,1.5453,1.5419,1.5393,1.538,1.5394,1.5376,1.5387,1.538,1.5381,1.538,1.5398,1.5399,1.54,1.54,0,1.5774,1.5759,1.5739,1.5715,1.5698,1.5676,1.5653,1.5645,1.5603,1.5588,1.5565,1.5548,1.5514,1.549,1.5459,1.5437,1.5411,1.5406,1.5406,1.5417,1.5431,1.5423,1.5376,1.5405,1.5405,1.5405,1.5404,1.5404,1.5807,1.5801,1.577,1.575,1.5728,1.5707,1.5697,1.567,1.565,1.5621,1.56,1.5578,1.5546,1.5503,1.5482,1.5464,1.5453,1.5453,1.5453,1.5454,1.5458,1.5434,1.5458,1.5458,1.5458,1.5458,1.5458,0,1.5844,1.5823,1.5804,1.5773,1.5757,1.5735,1.5708,1.5696,1.5678,1.5651,1.563,1.5604,1.558,1.5544,1.5517,1.551,1.5497,1.5504,1.5504,1.5499,1.5469,1.5472,1.5514,1.5514,1.5514,1.5514,1.5514,1.5514,1.5861,1.5848,1.5829,1.5805,1.5783,1.5763,1.5749,1.5729,1.5708,1.5681,1.5661,1.5639,1.5608,1.5579,1.5555,1.5545,1.5537,1.5547,1.5534,1.5507,1.5501,1.5496,1.5499,1.5546,1.5546,1.5565,1.5565,1.5565]}]]